sat.trackr.live / text

‹ back to catalog

STARLINK-5870

NORAD 57222 · 2023-094E

PAYLOAD ACTIVE UNKNOWN

§ Identity

Operator
Country
US
Launch date
2023-07-07
Launch site
AFWTR
Launch vehicle
Mass (kg)
RCS (m²)

Purposes: comms

External: N2YO · Heavens-Above · Gunter

§ Orbital elements

Epoch: 2026-09-20T13:42:50.918688Z

Period
94.27 min
Inclination
43.0040°
Eccentricity
0.0001643
Mean motion
15.27569565 rev/d
Perigee alt
482.0 km
Apogee alt
484.2 km
Semi-major
6,861.2 km
B*
-1.7417e-5
RAAN
9.8299°
Arg perigee
266.0740°
Mean anomaly
93.9924°
Rev number
17,755

§ Raw data

STARLINK-58701 57222U 23094E   26263.57142267 -.00000741  00000+0 -17417-4 0  99962 57222  43.0040   9.8299 0001643 266.0740  93.9924 15.27569565177559

JSON: /api/v1/satellites/57222 · /tle

For live sub-satellite position, see the globe view (requires WebGL).

§ Visibility from observer

Set your observer location to see the next 7 days of passes ≥ 10°. The values pass through the URL so the page stays shareable.

No JS? Fill the form by hand. The geolocation button needs JavaScript.